Location: Goettingen
(51.5300°N, 9.9433°E)
Time: 23:13:13
(UTC+01:00)

ISS - Pass Details

Date: 30 March 2017
Orbit: 399 x 409 km, 51.6° (Epoch: 23 March)

Event Time Altitude Azimuth Distance (km) Brightness Sun altitude
Rises 22:24:08 0° 257° (WSW) 2,314 0.5 -22.5°
Reaches altitude 10° 22:26:12 10° 257° (WSW) 1,457 -0.6 -22.7°
Enters shadow 22:27:55 28° 255° (WSW) 785 -2.1 -22.9°
